1st Responders/1st Detectors/Storm Spotters Weather Summary for Boone County, KY

Forecast Maps


Reg. NEXRAD Animation


National Fire Danger: Day 1 & 2 Map

Current NWS Watch/Warnings

SPC Convective Day 1 Outlook


Day 2 Outlook

(Click images to enlarge|Page will refresh every 5 minutes)
UK Ag. Weather Center Desktop Severe Weather Service[HERE]
Boone County, KY Hazardous Weather Outlook Webcast
(9 AM to 9 PM Mon-Fri)
[Fast]
[Dial-up]


UKAWC 1st Detectors/1st Responders Precision Weather Forecast For BOONE County, Kentucky
(based on the NWS County Digital Forecast)

ISSUED AT 11:00 UTC ON SUNDAY AUG 19 2018
DAY SUNDAY
EDT 3HR 8A 9A 10A 11A NOON 1P 2P 3P 4P 5P 6P 7P
MAX/MIN 67° -- -- -- -- -- -- -- -- -- -- 83°
TEMP 68° 70° 74° 77° 79° 81° 83° 83° 83° 83° 83° 81°
SKY COVER 43% 39% 36% 32% 32% 31% 31% 32% 33% 34% 28% 22%
Clouds
DEW PT 67° 67° 67° 68° 68° 68° 68° 68° 68° 68° 68° 68°
RH 93% 86% 78% 73% 69% 67% 62% 61% 60% 60% 63% 64%
POP 12HR 1% -- -- -- -- -- -- -- -- -- -- --
RAIN/SNOW (liq.equ) 0.00in -- -- -- -- -- 0.00in -- -- -- -- --
SNOWFALL 0in -- -- -- -- -- 0in -- -- -- -- --
WIND SPEED(MPH) 2 2 6 6 6 7 7 7 7 7 7 7
WIND Gust(MPH) 2 2 6 6 6 7 7 7 7 7 7 7
WIND DIR NE NE NE NE NE NE NE NE NE NE NE NE
DEW Mod Dew Mod Dew -- -- -- -- -- -- -- -- -- --
HeatIndex 68 70 74 77 82 84 86 87 87 87 86 85
Rain Showers -- -- -- -- -- -- -- -- -- -- -- --
Thunder Storm -- -- -- -- -- -- -- -- -- -- -- --
Fog Patchy Patchy -- -- -- -- -- -- -- -- -- --
WIND CHILL -- -- -- -- -- -- -- -- -- -- -- --
SPRAY COND
DRY COND
LIVESTOCK HEATSTRESS 67.65 69.14 72.16 74.30 75.56 76.97 77.94 77.81 77.68 77.68 78.08 76.60



DAY MONDAY TUESDAY WEDNESDAY THURSDAY FRIDAY SATURDAY
EDT 6HR 8P 9P 10P 11P MIDN 1A 2A 3A 4A 5A 6A 7A 8A 9A 10A 11A NOON 1P 2P 3P 4P 5P 6P 7P 8P 11P 2A 5A 8A 11A 2P 5P 8P 2A 8A 2P 8P 2A 8A 2P 8P 2A 8A 2P 8P 2A 8A 2P 8P
MAX/MIN -- -- -- -- -- -- -- -- -- -- -- -- 67° -- -- -- -- -- -- -- -- -- -- 83° -- -- -- -- 70° -- -- 79° -- -- 63° 76° -- -- 56° 79° -- -- 58° 81° -- -- 63° 83° --
TEMP 79° 76° 74° 74° 72° 72° 70° 70° 68° 68° 67° 67° 67° 72° 74° 77° 79° 81° 83° 83° 83° 83° 83° 81° 81° 74° 72° 70° 70° 76° 77° 79° 74° 65° 63° 76° 72° 61° 58° 77° 74° 63° 61° 79° 76° 67° 65° 83° 79°
SKY COVER 17% 16% 16% 15% 20% 26% 31% 34% 37% 40% 43% 46% 48% 51% 54% 57% 64% 71% 77% 79% 83% 85% 88% 91% 93% 91% 90% 89% 89% 84% 79% 74% 70% 42% 33% 37% 28% 18% 10% 11% 13% 10% 11% 14% 20% 24% 31% 28% 26%
Clouds
DEW PT 68° 68° 67° 67° 67° 67° 67° 65° 65° 65° 65° 65° 67° 67° 70° 70° 70° 72° 72° 72° 72° 72° 72° 72° 72° 70° 70° 70° 70° 70° 70° 70° 67° 63° 61° 61° 59° 58° 56° 58° 58° 56° 56° 59° 63° 61° 61° 67° 67°
RH 69% 76% 78% 81% 81% 84% 86% 86% 89% 90% 92% 93% 96% 87% 84% 79% 73% 74% 72% 69% 69% 69% 72% 73% 76% 87% 90% 96% 96% 84% 78% 74% 78% 93% 90% 59% 65% 89% 89% 50% 59% 81% 86% 50% 62% 81% 90% 58% 65%
POP 12HR 7% -- -- -- -- -- -- -- -- -- -- -- 5% -- -- -- -- -- -- -- -- -- -- -- 58% -- -- -- 70% -- -- -- 58% -- 20% -- 10% -- 10% -- 6% -- 6% -- 6% -- 9% -- 20%
RAIN/SNOW (liq.equ) 0.00in -- -- -- -- -- 0.00in -- -- -- -- -- 0.00in -- -- -- -- -- 0.00in -- -- -- -- -- 0.18in -- 0.23in -- 0.18in -- 0.14in -- 0.08in -- -- -- -- -- -- -- -- -- -- -- -- -- -- -- --
SNOWFALL 0in -- -- -- -- -- 0in -- -- -- -- -- 0in -- -- -- -- -- 0in -- -- -- -- -- 0in -- 0in -- 0in -- 0in -- 0in -- -- -- -- -- -- -- -- -- -- -- -- -- -- -- --
WIND SPEED(MPH) 6 6 5 5 5 5 5 5 5 5 5 5 5 6 6 7 7 7 7 7 7 7 7 6 7 7 7 8 9 13 14 15 14 7 7 7 7 2 2 2 2 2 2 2 2 2 2 6 5
WIND DIR NE NE E E E E E E E E E E E SE SE SE SE SE S S S S S S S S S S S SW SW W W NW NW N N N N NE NE E E SE E SE S SW S
HeatIndex 82 76 74 74 72 72 70 70 68 68 67 67 67 72 74 77 83 85 88 90 90 90 88 87 85 74 72 70 70 76 77 79 74 65 63 76 72 61 58 77 74 63 61 80 76 67 65 85 82
Rain Showers -- -- -- -- -- -- -- -- -- -- -- -- -- -- -- -- Slight Chance Slight Chance Chance Chance Chance Chance Chance Likely Likely Likely Likely Likely Likely Chance Chance Chance Chance -- -- -- -- -- -- -- -- -- -- -- -- -- -- Slight Chance --
Thunder Storm -- -- -- -- -- -- -- -- -- -- -- -- -- -- -- -- Slight Chance Slight Chance Chance Chance Chance Chance Chance Likely Likely Likely Likely Likely Likely Chance Chance Chance Chance -- -- -- -- -- -- -- -- -- -- -- -- -- -- Slight Chance --
Fog -- -- -- -- -- -- -- -- -- -- -- -- -- -- -- -- -- -- -- -- -- -- -- -- -- -- -- -- -- -- -- -- -- -- -- -- -- -- -- -- -- -- -- -- -- -- -- -- --
WIND CHILL -- -- -- -- -- -- -- -- -- -- -- -- -- -- -- -- -- -- -- -- -- -- -- -- -- -- -- -- -- -- -- -- -- -- -- -- -- -- -- -- -- -- -- -- -- -- -- -- --
SPRAY COND
DRY COND
LIVESTOCK HEATSTRESS 75.56 73.73 72.16 72.41 70.62 70.84 69.14 69.14 67.44 67.49 66.64 66.68 66.82 71.06 72.66 74.90 76.00 77.83 79.27 78.87 78.87 78.87 79.27 77.70 78.07 72.91 71.27 69.75 69.75 74.49 74.80 76.11 72.16 64.76 62.77 72.12 69.46 60.87 58.05 72.00 70.57 62.56 60.83 73.44 72.41 66.14 64.66 77.41 75.11

Click on individual weather variable above in left-hand column (ie., TEMP, RH, QPF 12HR) to view state forecast maps






NWS 48 Hr. Forecast Maps,

Regional Hourly Observations For BOONE County, Kentucky
Issued at 700 AM EDT SUN AUG 19 2018
NORTHEAST KENTUCKY
  
CITY           SKY/WX    TMP DP  RH WIND       PRES   REMARKS
LEXINGTON      FAIR      67  65  93 CALM      29.95R FOG              
COVINGTON      FAIR      70  67  90 NE6       29.96R                  
FRANKFORT      FOG       67  66  97 NW3       29.94R VSB 1/4          


Current NOWCAST not available:
Nowcasts are not issued routinely during fair weather. Only when
precipitation or other significant weather is occuring in this county will these
forecasts be issued. Currently, there is no short term forecast in effect.


Fire Weather Forecast For BOONE County, KY
Provided by the National Weather Service:

Issued at: Sun Aug 19 07:05:01 EDT 2018

CLOUD COVER                     PCldy       MClear        PCldy
PRECIP TYPE                      None         None        Tstms
CHANCE PRECIP (%)                   0            0           50
TEMP (24H TREND)               84 (0)       67 (0)           84
RH % (24H TREND)              57 (-9)      94 (-4)           66
20FTWND-AM(MPH)               Lgt/Var                   Lgt/Var
20FTWND-PM(MPH)                 NE  5      Lgt/Var         S  6
PRECIP AMOUNT                    0.00         0.00         0.12
PRECIP DURATION                                               1
MIXING HGT(FT-AGL)               5460                      4500
TRANSPORT WND (MPH)             NE  6                      S 13
LAL                                 1            1            3
HAINES INDEX                        3            3            3

REMARKS...None.

.FORECAST FOR DAYS 3 THROUGH 7...
.MONDAY NIGHT...Cloudy with showers and thunderstorms likely. Lows around
70. South winds around 5 mph. 
.TUESDAY...Mostly cloudy with showers and thunderstorms likely. Highs in
the upper 70s. Southwest winds 5 to 10 mph. 
.WEDNESDAY...Partly cloudy. A chance of showers and thunderstorms. Lows in
the lower 60s. Highs in the upper 70s. Northwest winds 5 to 10 mph. 
.THURSDAY...Mostly clear. Lows in the upper 50s. Highs in the upper 70s.
Northeast winds around 5 mph. 
.FRIDAY...Mostly clear. Lows in the upper 50s. Highs in the lower 80s.
East winds around 5 mph. 
.SATURDAY...Mostly cloudy. A chance of showers and thunderstorms. Lows in
the mid 60s. Highs in the mid 80s. South winds around 5 mph. 

SPC's Fire Weather Web Tool (Excellent!), SPC's Fire Weather Outlooks, NWS Fire Weather WEB, Fire Danger Class Map,
Keetch-Byram Drought Index, ROMAN Web, Haines Index ,
WFAS's 10-hr Dead Fuel Moist., WFAS's 100-hr Dead Fuel Moist., Probablity of Ignition, Visual blackness Map, Palmer Drought Index, HPC's Rainfall Forecast Maps


Hazardous Weather Outlook For BOONE County, Kentucky
344 AM EDT Sun Aug 19 2018

 DAY ONE  Today and Tonight.

No hazardous weather expected at this time.

 DAYS TWO THROUGH SEVEN  Monday through Saturday.

A few strong to severe storms are possible later Monday night and
Tuesday as a strong cold front crosses the area. The main threat will
be strong wind gusts. 

 SPOTTER INFORMATION STATEMENT  

Spotter activation is not expected at this time.

Latest BOONE County, Kentucky Watches, Warnings and Advisories.
Additional Drought Info.: UKAWC Drought Page, Kentucky Drought Watch


7-Day Forecast For BOONE County, KY

TODAY
Areas of fog this morning. Partly cloudy. Highs in the mid 80s. Northeast winds 5 to 10 mph.

TONIGHT
Mostly clear in the evening, then becoming partly cloudy. Areas of fog after midnight. Lows in the upper 60s. East winds 5 to 10 mph.

MONDAY
Areas of fog in the morning. Partly cloudy in the morning, then mostly cloudy with a chance of showers and thunderstorms in the afternoon. Humid with highs in the mid 80s. Southeast winds 5 to 10 mph. Chance of rain 50 percent.

MONDAY NIGHT
Showers and thunderstorms likely. Muggy. Lows around 70. South winds 5 to 10 mph. Chance of rain 70 percent.

TUESDAY
Mostly cloudy. Showers and thunderstorms likely, mainly in the morning. Humid with highs in the upper 70s. Southwest winds 10 to 15 mph. Chance of rain 60 percent.

TUESDAY NIGHT
Partly cloudy. A chance of showers and thunderstorms in the evening. Lows in the lower 60s. Chance of rain 40 percent.

WEDNESDAY
Partly cloudy. Highs in the upper 70s.

WEDNESDAY NIGHT
Mostly clear. Lows in the upper 50s.

THURSDAY
Sunny. Highs in the upper 70s.

THURSDAY NIGHT
Clear. Lows in the upper 50s.

FRIDAY
Mostly sunny. Highs in the lower 80s.

FRIDAY NIGHT
Partly cloudy. Lows in the mid 60s.

SATURDAY
Partly cloudy. A chance of showers in the morning, then a chance of showers and thunderstorms in the afternoon. Highs in the mid 80s. Chance of rain 40 percent.

Ag Weather Center, Department of Biosystems & Agricultural Engineering, University of Kentucky